Terminal Aerodrome Forecast
Issued by NWS

Home | Current Version | Previous Version | Text Only | Print | Product List | Glossary On
Versions: 1 2 3 4 5 6 7 8 9 10 11 12 13 14 15 16 17 18 19 20 21 22 23 24 25 26
000
FTUS41 KBUF 300901 AAA
TAFJHW
TAF AMD
KJHW 300901Z 3009/3106 09007KT P6SM OVC080
     FM301200 12005KT P6SM VCSH OVC070
     FM301600 08008KT P6SM VCSH OVC050
     FM302000 03008KT P6SM VCSH OVC040
     FM302300 07007KT P6SM VCSH OVC040
      AMD LTD TO CLD VIS AND WIND=

USA.gov is the U.S. government's official web portal to all federal, state and local government web resources and services.